{"data":{"norad_id":61912,"epoch":"2026-09-21T07:58:50.782944Z","epoch_age_seconds":116969,"freshness":"FRESH","line1":"1 61912U 24207A   26264.33253221  .00006013  00000+0  22787-3 0  9993","line2":"2 61912  42.9997 256.8118 0001211 279.0008  81.0706 15.27576665105236","mean_motion":15.27576665,"eccentricity":0.0001211,"inclination_deg":42.9997,"raan_deg":256.8118,"arg_perigee_deg":279.0008,"mean_anomaly_deg":81.0706,"bstar":0.00022787,"rev_number":10523,"period_min":94.266954516486,"perigee_km":482.22819140202,"apogee_km":483.88997309314,"semimajor_km":6861.1960822476,"source":"CELESTRAK","updated_at":"2026-09-22T09:00:49.448676Z"}}